Dewpoint
61 59 58 58 57 58 60 63 60 61 65 64 61 60 60 67 70 72 70 69 69 69 69 69 69 69 70 70 70 71 71 71 70 69 69 67 64 64 62 61 61 61 61
62 62 57 60 63 60 59 60 59 61 63 63 60 60 63 67 69 70 70 68 68 66 69 69 69 70 70 70 71 71 71 70 69 68 67 66 64 62 61 61 61 61 61
63 62 59 56 56 62 62 61 63 63 61 61 61 60 63 67 69 70 71 67 69 69 68 66 70 70 70 70 69 70 70 70 68 67 67 65 63 61 61 61 61 60 60
62 63 64 63 64 63 62 60 58 58 58 59 59 57 66 68 69 69 70 69 68 68 68 69 69 70 70 69 69 70 69 68 68 67 65 62 61 61 61 60 60 60 60
62 64 65 63 64 62 63 62 57 58 58 59 58 58 68 69 69 69 67 69 68 68 67 68 69 70 70 70 70 70 68 67 66 65 62 61 61 61 60 60 60 60 59
61 63 65 64 63 61 63 63 61 58 57 59 59 62 68 69 69 67 67 67 67 68 68 67 68 71 69 70 69 69 67 65 63 63 62 62 61 60 60 59 59 58 57
61 63 61 61 61 61 62 63 62 61 61 62 62 65 67 68 67 67 68 67 66 66 66 66 66 70 68 68 69 68 66 64 63 62 62 62 60 59 59 58 58 57 57
62 63 64 62 61 58 62 62 63 61 63 65 63 62 59 61 65 66 68 66 66 66 65 66 66 67 67 67 67 67 65 64 62 60 60 62 60 59 58 57 57 56 56
62 63 61 61 61 59 59 63 64 62 60 66 63 62 58 57 60 65 64 64 65 65 65 65 66 67 67 68 67 66 65 63 61 60 60 60 58 58 57 56 56 56 55
62 62 62 61 62 58 65 66 67 64 63 63 65 64 64 62 58 56 61 63 64 64 65 66 66 66 66 68 67 65 64 63 60 59 59 58 57 57 57 56 56 55 53
63 62 63 63 64 66 66 65 65 64 63 63 63 63 63 63 62 59 56 58 60 63 65 65 66 66 67 67 67 63 63 62 61 62 62 60 57 56 57 56 55 53 54
65 63 62 63 65 65 65 66 65 66 66 65 65 65 62 62 61 60 59 58 58 58 63 65 65 66 68 68 65 63 62 61 61 61 62 61 60 58 56 55 54 53 53
65 64 63 64 65 64 65 66 65 65 65 62 63 64 63 62 63 60 58 58 56 57 59 61 62 63 64 68 63 62 62 60 59 59 59 59 59 59 58 55 53 53 53
62 63 63 64 63 63 64 65 65 66 67 63 63 63 64 63 63 62 59 55 53 55 58 59 61 61 66 64 61 61 58 58 57 56 57 57 57 57 57 56 56 54 50
64 63 63 63 64 64 64 65 67 66 65 63 62 63 62 61 62 59 60 60 56 54 54 57 56 59 60 59 60 57 56 57 56 55 54 55 56 55 55 56 54 51 50
60 60 63 64 63 63 65 66 66 64 63 63 63 63 61 62 60 59 57 57 59 57 52 55 52 57 58 53 56 56 54 55 56 54 54 53 53 53 54 54 52 50 48
59 60 60 61 62 63 63 66 65 63 63 63 63 61 61 62 61 60 57 57 54 52 52 50 51 57 56 53 52 54 55 50 50 54 53 52 52 52 53 52 50 49 46
60 60 61 61 61 61 62 62 63 62 62 63 63 62 60 61 62 61 57 60 55 56 52 52 52 54 56 58 57 59 53 51 51 51 52 51 51 51 51 50 49 48 46
59 60 60 61 61 61 61 61 62 61 62 61 62 62 62 62 61 58 57 53 51 48 52 48 49 50 54 55 57 56 56 54 49 48 49 49 50 50 47 46 46 47 44
55 57 58 58 60 59 56 58 61 62 61 61 61 61 60 60 60 60 56 53 51 50 50 48 49 50 51 54 54 51 51 50 46 37 41 42 45 48 47 45 45 44 43
51 50 52 52 54 53 52 57 57 58 59 58 59 58 59 57 54 55 46 54 57 50 49 47 47 48 49 50 52 51 50 50 51 47 42 40 38 38 39 47 43 43 43
52 51 50 50 52 47 45 49 55 55 55 56 56 55 54 52 51 50 51 51 55 57 55 48 47 49 54 53 52 51 51 49 47 50 49 45 41 39 38 38 38 41 42
57 54 52 51 54 52 42 44 49 57 57 58 58 57 50 48 53 52 47 47 47 47 50 58 57 54 54 57 57 56 55 52 50 49 49 45 44 39 38 34 42 41 42
58 57 55 54 54 49 41 41 47 56 56 56 56 56 54 55 53 52 51 51 51 52 55 51 58 58 58 58 59 57 57 56 54 51 51 45 44 40 40 36 42 41 41
58 57 55 55 54 52 40 38 44 51 51 51 48 49 49 48 41 42 45 48 49 50 34 39 39 37 36 37 45 51 47 47 45 44 48 44 41 37 37 40 36 40 40
54 48 51 54 51 53 40 38 42 35 47 40 44 44 36 39 37 38 49 49 47 48 46 41 46 43 40 44 39 50 43 40 40 38 43 40 40 38 33 38 38 38 34
Lifted_Index
-1 0 1 0 -0 -1 -1 -1 -0 -0 -1 -1 -1 -0 -1 -3 -4 -4 -3 -1 -0 0 0 0 0 -0 -0 -1 -1 -1 -2 -2 -3 -2 -1 -0 1 2 3 4 4 5 5
-1 -0 0 0 -0 -1 -1 -1 -1 -1 -1 -1 -1 -0 -1 -3 -4 -4 -3 -1 -0 0 0 0 -0 -1 -1 -1 -1 -1 -2 -2 -2 -2 -1 0 2 3 3 4 4 5 5
-1 -1 -0 -0 -1 -1 -1 -1 -1 -1 -1 -1 -1 -1 -2 -3 -4 -4 -3 -1 -0 0 1 0 -1 -1 -1 -1 -1 -1 -2 -2 -2 -1 -0 1 2 3 3 4 4 5 5
-2 -2 -1 -1 -2 -2 -2 -2 -2 -1 -1 -1 -1 -1 -2 -3 -4 -4 -3 -2 -0 0 1 0 -1 -1 -1 -1 -1 -1 -2 -2 -1 -0 1 2 3 3 3 4 5 5 5
-2 -2 -2 -2 -2 -2 -2 -2 -2 -1 -1 -1 -1 -1 -3 -3 -4 -3 -2 -1 -0 0 0 0 -1 -1 -1 -1 -1 -1 -1 -1 -0 1 2 2 3 3 4 5 5 5 5
-1 -2 -2 -2 -2 -2 -2 -2 -2 -2 -1 -1 -1 -2 -3 -3 -3 -3 -2 -1 -0 0 0 0 -0 -1 -1 -1 -1 -1 -0 0 1 2 2 3 3 4 4 5 6 6 6
-1 -1 -2 -2 -1 -1 -2 -2 -2 -2 -2 -2 -2 -2 -3 -3 -2 -2 -2 -1 -0 0 1 1 0 -1 -1 -1 -1 -0 0 1 2 2 2 2 3 4 5 6 6 6 7
-1 -1 -1 -1 -1 -1 -2 -2 -2 -2 -2 -2 -2 -2 -2 -1 -1 -1 -1 -1 0 1 1 1 0 -0 -0 -0 -0 -0 1 2 2 2 2 3 4 5 6 6 6 7 6
-0 -1 -1 -1 -1 -1 -2 -2 -2 -2 -3 -3 -2 -2 -1 -1 -1 -1 -1 -0 0 1 1 1 0 0 0 -0 -0 0 1 2 2 3 3 4 5 6 6 6 6 6 6
-0 -0 -1 -1 -1 -2 -2 -2 -3 -3 -3 -2 -2 -1 -1 -1 -0 -0 0 0 1 1 1 0 0 0 -0 -1 -0 1 2 3 3 3 4 5 5 6 6 6 6 6 7
-0 -1 -1 -1 -2 -2 -3 -3 -3 -3 -2 -2 -2 -1 -1 -1 0 0 1 1 1 1 1 0 0 0 -0 -0 -0 1 2 3 3 4 4 4 5 6 6 6 7 7 7
-1 -0 -1 -1 -2 -3 -3 -3 -3 -3 -3 -2 -2 -1 -1 -0 0 1 1 2 2 1 1 1 0 0 -0 -0 0 1 2 3 4 4 4 4 5 6 6 7 7 8 8
-0 -0 -0 -1 -1 -2 -3 -3 -3 -3 -3 -2 -1 -1 -1 0 1 1 1 2 1 1 1 1 1 0 -0 0 1 2 3 4 5 5 5 5 6 6 7 7 8 8 8
0 0 -0 -1 -1 -2 -2 -3 -3 -3 -3 -2 -1 -1 -0 1 1 1 1 1 1 1 1 1 1 1 0 1 2 3 4 5 7 7 7 7 7 7 8 8 8 9 10
0 0 -0 -1 -1 -2 -2 -3 -3 -3 -2 -1 -0 0 1 1 1 1 1 2 2 2 2 2 2 2 1 2 3 4 5 7 9 9 8 8 8 8 8 9 10 11 12
1 1 -0 -1 -1 -1 -2 -2 -3 -2 -2 -1 -0 0 1 1 1 1 2 2 2 2 2 2 3 3 3 4 4 4 6 8 9 9 8 8 8 8 9 10 12 13 14
1 1 1 0 -0 -1 -1 -2 -2 -2 -1 -1 -0 0 0 1 1 2 2 2 2 2 2 3 4 4 4 5 5 5 5 7 7 7 7 7 8 9 10 11 13 14 15
0 0 1 1 1 1 0 -1 -2 -2 -1 -1 -1 -0 0 0 1 2 2 2 3 3 3 3 4 4 4 4 4 4 5 5 6 6 6 6 8 9 11 12 13 15 16
0 0 0 1 1 1 1 -0 -1 -2 -2 -1 -1 -1 -0 -0 0 1 2 3 3 4 4 4 5 5 4 4 4 4 5 5 5 6 6 6 8 9 11 12 14 16 17
2 1 1 1 1 1 1 0 -1 -1 -1 -1 -1 -1 -0 -0 -0 1 3 4 4 5 5 5 5 5 5 4 4 4 5 5 5 5 6 6 7 9 11 13 14 16 17
3 3 3 2 2 2 1 1 0 0 0 1 1 1 1 2 2 3 4 4 4 4 4 5 5 5 4 4 4 4 4 5 5 5 6 7 8 10 11 13 14 16 16
4 4 4 4 4 4 3 2 1 1 1 2 2 3 4 4 4 5 5 4 4 4 4 4 4 4 3 3 3 3 4 4 5 5 6 7 8 10 12 13 14 15 16
3 3 4 4 4 5 5 4 3 2 2 2 2 3 4 5 5 5 5 5 4 4 3 3 2 2 2 2 2 3 3 3 4 5 6 7 8 10 12 13 14 15 15
2 2 3 3 4 6 7 6 5 4 3 3 3 4 4 5 5 5 5 5 4 5 5 4 3 3 2 2 2 3 3 4 4 5 6 7 8 10 11 13 14 14 15
2 3 3 3 4 6 8 9 8 6 5 5 6 6 6 6 6 6 6 5 5 5 6 6 5 5 4 5 5 5 5 5 5 5 6 7 8 10 11 12 13 14 14
3 3 4 4 4 6 8 10 9 8 7 7 8 8 7 7 7 7 6 5 5 5 6 7 6 6 6 6 6 6 6 6 6 6 7 8 9 10 10 11 12 13 14